Location: Marcé
(47.5801°N, 0.3280°W)
Time: 11:34:32
(UTC+01:00)

Vanguard 3 - Pass Details

Date: 08 December 2021
Orbit: 508 x 3260 km, 33.3° (Epoch: 17 January)

Event Time Altitude Azimuth Distance (km) Brightness Sun altitude
Exits shadow 04:51:33 37° 215° (SW) 4,342 10.4 -36.9°
Maximum altitude 04:59:09 49° 172° (S) 3,797 10.3 -35.6°
Drops below altitude 10° 05:15:14 10° 104° (ESE) 5,335 12.1 -32.9°
Sets 05:18:57 0° 100° (E) 6,047 12.7 -32.3°
